• Em Portugal
  • Lista de países
  • Para 7 dias
  • Temperatura da água
  • Mapas de satélite
  • Mapa do tempo
  • Widgets de tempo
  • user-avatar
    Iniciar Sessão

    Previsão horária em Dhalkuta

    Hoje, 22 Setembro, Sábado

    Tempo Temperatura Precipitação Vento Pressão Humidade
    00:00 +28°C° 0 mm 2 m/s 753 mmHg 83%
    01:00 +28°C° 0.1 mm 2 m/s 753 mmHg 83%
    02:00 +28°C° 0.1 mm 2 m/s 753 mmHg 82%
    03:00 +28°C° 0.1 mm 2 m/s 753 mmHg 82%
    04:00 +28°C° 0.1 mm 1 m/s 753 mmHg 82%
    05:00 +28°C° 0.1 mm 1 m/s 753 mmHg 82%
    06:00 +27°C° 0 mm 1 m/s 753 mmHg 84%
    07:00 +28°C° 0 mm 1 m/s 753 mmHg 81%
    08:00 +29°C° 0 mm 1 m/s 753 mmHg 78%
    09:00 +30°C° 0 mm 1 m/s 754 mmHg 75%
    10:00 +31°C° 0.3 mm 1 m/s 753 mmHg 71%
    11:00 +33°C° 0.3 mm 1 m/s 753 mmHg 67%
    12:00 +35°C° 0.3 mm 2 m/s 753 mmHg 62%
    13:00 +35°C° 0.4 mm 2 m/s 752 mmHg 61%
    14:00 +36°C° 0.4 mm 2 m/s 752 mmHg 59%
    15:00 +36°C° 0.4 mm 2 m/s 751 mmHg 57%
    16:00 +34°C° 0.3 mm 1 m/s 751 mmHg 61%
    17:00 +33°C° 0.3 mm 1 m/s 750 mmHg 64%
    18:00 +32°C° 0.3 mm 1 m/s 750 mmHg 68%
    19:00 +32°C° 0 mm 1 m/s 751 mmHg 69%
    20:00 +31°C° 0 mm 1 m/s 751 mmHg 71%
    21:00 +30°C° 0 mm 1 m/s 752 mmHg 72%
    22:00 +30°C° 0.2 mm 1 m/s 752 mmHg 73%
    23:00 +30°C° 0.2 mm 1 m/s 752 mmHg 75%

    Amanhã, 23 Setembro, Domingo

    Tempo Temperatura Precipitação Vento Pressão Humidade
    00:00 +29°C° 0.2 mm 1 m/s 752 mmHg 76%
    01:00 +29°C° 0.1 mm 1 m/s 752 mmHg 77%
    02:00 +29°C° 0.1 mm 1 m/s 752 mmHg 77%
    03:00 +29°C° 0.1 mm 1 m/s 751 mmHg 78%
    04:00 +29°C° 0 mm 1 m/s 751 mmHg 79%
    05:00 +28°C° 0 mm 1 m/s 752 mmHg 80%
    06:00 +28°C° 0 mm 1 m/s 752 mmHg 81%
    07:00 +30°C° 0 mm 1 m/s 752 mmHg 77%
    08:00 +31°C° 0 mm 1 m/s 752 mmHg 72%
    09:00 +34°C° 0 mm 2 m/s 753 mmHg 68%
    10:00 +35°C° 0 mm 2 m/s 752 mmHg 65%
    11:00 +36°C° 0 mm 2 m/s 752 mmHg 61%
    12:00 +37°C° 0 mm 3 m/s 752 mmHg 58%
    13:00 +37°C° 0.2 mm 3 m/s 751 mmHg 58%
    14:00 +37°C° 0.2 mm 3 m/s 750 mmHg 58%
    15:00 +37°C° 0.2 mm 4 m/s 750 mmHg 57%
    16:00 +36°C° 0.2 mm 3 m/s 750 mmHg 62%
    17:00 +35°C° 0.2 mm 3 m/s 749 mmHg 67%
    18:00 +34°C° 0.2 mm 2 m/s 749 mmHg 71%
    19:00 +32°C° 0.2 mm 2 m/s 750 mmHg 73%
    20:00 +31°C° 0.2 mm 2 m/s 750 mmHg 74%
    21:00 +31°C° 0.2 mm 1 m/s 751 mmHg 75%
    22:00 +31°C° 0.4 mm 1 m/s 751 mmHg 76%
    23:00 +30°C° 0.4 mm 1 m/s 751 mmHg 76%

    Depois de amanhã, 24 Setembro, Segunda-feira

    Tempo Temperatura Precipitação Vento Pressão Humidade
    00:00 +30°C° 0.4 mm 1 m/s 751 mmHg 77%
    01:00 +30°C° 1.1 mm 1 m/s 750 mmHg 79%
    02:00 +29°C° 1.1 mm 1 m/s 750 mmHg 81%
    03:00 +29°C° 1.1 mm 1 m/s 749 mmHg 83%
    04:00 +29°C° 0.5 mm 1 m/s 749 mmHg 83%
    05:00 +28°C° 0.5 mm 1 m/s 749 mmHg 84%
    06:00 +28°C° 0.5 mm 1 m/s 749 mmHg 84%
    07:00 +29°C° 0 mm 1 m/s 750 mmHg 80%
    08:00 +31°C° 0 mm 1 m/s 750 mmHg 75%
    09:00 +32°C° 0 mm 1 m/s 751 mmHg 71%
    10:00 +34°C° 0.1 mm 2 m/s 750 mmHg 67%
    11:00 +35°C° 0.1 mm 3 m/s 750 mmHg 64%
    12:00 +36°C° 0.1 mm 4 m/s 750 mmHg 60%
    13:00 +36°C° 0.2 mm 4 m/s 749 mmHg 60%
    14:00 +36°C° 0.2 mm 4 m/s 748 mmHg 59%
    15:00 +37°C° 0.2 mm 4 m/s 748 mmHg 59%
    16:00 +35°C° 0.3 mm 4 m/s 748 mmHg 63%
    17:00 +34°C° 0.3 mm 3 m/s 747 mmHg 68%
    18:00 +32°C° 0.3 mm 2 m/s 747 mmHg 73%
    19:00 +32°C° 0.2 mm 2 m/s 748 mmHg 74%
    20:00 +31°C° 0.2 mm 2 m/s 749 mmHg 75%
    21:00 +31°C° 0.2 mm 2 m/s 749 mmHg 77%
    22:00 +30°C° 0.2 mm 2 m/s 749 mmHg 78%
    23:00 +30°C° 0.2 mm 2 m/s 749 mmHg 79%

    25 Setembro, Terça-feira

    Tempo Temperatura Precipitação Vento Pressão Humidade
    00:00 +29°C° 0.2 mm 2 m/s 749 mmHg 81%
    01:00 +29°C° 0.1 mm 2 m/s 749 mmHg 82%
    02:00 +29°C° 0.1 mm 2 m/s 748 mmHg 83%
    03:00 +28°C° 0.1 mm 1 m/s 748 mmHg 84%
    04:00 +28°C° 0 mm 1 m/s 748 mmHg 84%
    05:00 +28°C° 0 mm 1 m/s 748 mmHg 84%
    06:00 +28°C° 0 mm 1 m/s 748 mmHg 85%
    07:00 +29°C° 0 mm 1 m/s 749 mmHg 81%
    08:00 +30°C° 0 mm 1 m/s 749 mmHg 77%
    09:00 +31°C° 0 mm 2 m/s 750 mmHg 73%
    10:00 +32°C° 0.1 mm 2 m/s 750 mmHg 69%
    11:00 +34°C° 0.1 mm 3 m/s 749 mmHg 66%
    12:00 +35°C° 0.1 mm 3 m/s 749 mmHg 62%
    13:00 +35°C° 0.1 mm 4 m/s 748 mmHg 61%
    14:00 +36°C° 0.1 mm 4 m/s 747 mmHg 60%
    15:00 +36°C° 0.1 mm 4 m/s 747 mmHg 59%
    16:00 +35°C° 0.1 mm 3 m/s 747 mmHg 64%
    17:00 +34°C° 0.1 mm 3 m/s 747 mmHg 68%
    18:00 +31°C° 0.1 mm 2 m/s 747 mmHg 73%
    19:00 +31°C° 0.2 mm 2 m/s 747 mmHg 74%
    20:00 +31°C° 0.2 mm 2 m/s 748 mmHg 75%
    21:00 +30°C° 0.2 mm 1 m/s 748 mmHg 76%
    22:00 +30°C° 0.6 mm 1 m/s 748 mmHg 78%
    23:00 +29°C° 0.6 mm 1 m/s 748 mmHg 80%

    26 Setembro, Quarta-feira

    Tempo Temperatura Precipitação Vento Pressão Humidade
    00:00 +29°C° 0.6 mm 1 m/s 748 mmHg 82%
    01:00 +29°C° 0.7 mm 1 m/s 748 mmHg 83%
    02:00 +28°C° 0.7 mm 1 m/s 747 mmHg 84%
    03:00 +28°C° 0.7 mm 1 m/s 747 mmHg 85%
    04:00 +28°C° 0.1 mm 1 m/s 747 mmHg 85%
    05:00 +28°C° 0.1 mm 1 m/s 747 mmHg 85%
    06:00 +27°C° 0.1 mm 1 m/s 748 mmHg 85%
    07:00 +29°C° 0.2 mm 1 m/s 748 mmHg 80%
    08:00 +30°C° 0.2 mm 2 m/s 749 mmHg 75%
    09:00 +32°C° 0.2 mm 2 m/s 749 mmHg 70%
    10:00 +34°C° 0.5 mm 2 m/s 749 mmHg 67%
    11:00 +35°C° 0.5 mm 2 m/s 749 mmHg 64%
    12:00 +35°C° 0.5 mm 2 m/s 748 mmHg 61%
    13:00 +35°C° 1.2 mm 2 m/s 748 mmHg 62%
    14:00 +35°C° 1.2 mm 2 m/s 747 mmHg 63%
    15:00 +35°C° 1.2 mm 2 m/s 747 mmHg 63%
    16:00 +33°C° 0.7 mm 1 m/s 747 mmHg 67%
    17:00 +32°C° 0.7 mm 1 m/s 747 mmHg 70%
    18:00 +32°C° 0.7 mm 1 m/s 747 mmHg 73%
    19:00 +31°C° 0.4 mm 1 m/s 748 mmHg 75%
    20:00 +30°C° 0.4 mm 1 m/s 748 mmHg 76%
    21:00 +30°C° 0.4 mm 2 m/s 749 mmHg 77%
    22:00 +29°C° 0.1 mm 1 m/s 749 mmHg 78%
    23:00 +29°C° 0.1 mm 1 m/s 749 mmHg 79%

    27 Setembro, Quinta-feira

    Tempo Temperatura Precipitação Vento Pressão Humidade
    00:00 +29°C° 0.1 mm 1 m/s 749 mmHg 80%
    01:00 +29°C° 0.2 mm 1 m/s 748 mmHg 80%
    02:00 +28°C° 0.2 mm 1 m/s 748 mmHg 81%
    03:00 +28°C° 0.2 mm 1 m/s 748 mmHg 81%
    04:00 +28°C° 0.1 mm 2 m/s 748 mmHg 82%
    05:00 +28°C° 0.1 mm 2 m/s 748 mmHg 82%
    06:00 +27°C° 0.1 mm 2 m/s 749 mmHg 83%
    07:00 +29°C° 0 mm 2 m/s 749 mmHg 79%
    08:00 +30°C° 0 mm 2 m/s 750 mmHg 74%
    09:00 +32°C° 0 mm 2 m/s 750 mmHg 70%
    10:00 +34°C° 0.2 mm 2 m/s 750 mmHg 66%
    11:00 +35°C° 0.2 mm 2 m/s 750 mmHg 61%
    12:00 +36°C° 0.2 mm 2 m/s 749 mmHg 57%
    13:00 +36°C° 0.3 mm 2 m/s 749 mmHg 57%
    14:00 +36°C° 0.3 mm 2 m/s 748 mmHg 57%
    15:00 +36°C° 0.3 mm 2 m/s 748 mmHg 57%
    16:00 +34°C° 0.5 mm 1 m/s 748 mmHg 61%
    17:00 +33°C° 0.5 mm 1 m/s 748 mmHg 65%
    18:00 +32°C° 0.5 mm 1 m/s 748 mmHg 69%
    19:00 +31°C° 0.1 mm 1 m/s 748 mmHg 70%
    20:00 +31°C° 0.1 mm 1 m/s 749 mmHg 71%
    21:00 +30°C° 0.1 mm 1 m/s 750 mmHg 71%
    22:00 +30°C° 0.1 mm 1 m/s 750 mmHg 72%
    23:00 +30°C° 0.1 mm 1 m/s 749 mmHg 73%
    Mostrar mais